This is the latest recevied weather packets stored in our database for station/object VE3VGJ. If no packets are shown the sender has not sent any weather packets the latest 10 day(s).
| Time | Temp. | Humidity | Pressure | Rain* | Wind** | Luminosity | Snow |
|---|---|---|---|---|---|---|---|
| 1778028282 | 10° C | 59% | 1008.4 hPa | 0 mm | - | 0 W/m² | - |
| 1778027978 | 10° C | 60% | 1008.3 hPa | 0 mm | - | 0 W/m² | - |
| 1778027675 | 10° C | 59% | 1008.3 hPa | 0 mm | - | 0 W/m² | - |
| 1778027371 | 10° C | 60% | 1008.2 hPa | 0 mm | - | 0 W/m² | - |
| 1778027068 | 10° C | 60% | 1008.3 hPa | 0 mm | - | 0 W/m² | - |
| 1778026763 | 10° C | 59% | 1008.1 hPa | 0 mm | - | 1 W/m² | - |
| 1778026460 | 10° C | 59% | 1007.9 hPa | 0 mm | - | 2 W/m² | - |
| 1778026158 | 10° C | 59% | 1007.8 hPa | 0 mm | - | 2 W/m² | - |
| 1778025855 | 10° C | 59% | 1007.7 hPa | 0 mm | - | 3 W/m² | - |
| 1778025552 | 10° C | 59% | 1007.6 hPa | 0 mm | - | 3 W/m² | - |
| 1778025250 | 10° C | 60% | 1007.7 hPa | 0 mm | - | 5 W/m² | - |
| 1778024947 | 10° C | 59% | 1007.5 hPa | 0 mm | - | 5 W/m² | - |
| 1778024644 | 10° C | 60% | 1007.4 hPa | 0 mm | - | 8 W/m² | - |
| 1778024341 | 10° C | 60% | 1007.4 hPa | 0 mm | - | 9 W/m² | - |
| 1778024039 | 10° C | 60% | 1007.3 hPa | 0 mm | - | 10 W/m² | - |
| 1778023736 | 10° C | 60% | 1007.4 hPa | 0 mm | - | 10 W/m² | - |
| 1778023434 | 10° C | 60% | 1007.3 hPa | 0 mm | - | 14 W/m² | - |
| 1778023130 | 10° C | 61% | 1007.5 hPa | 0 mm | - | 15 W/m² | - |
| 1778022827 | 10° C | 60% | 1007.8 hPa | 0 mm | - | 14 W/m² | - |
| 1778022526 | 10° C | 59% | 1007.6 hPa | 0 mm | - | 16 W/m² | - |
| 1778022222 | 10° C | 61% | 1007.7 hPa | 0 mm | - | 19 W/m² | - |
| 1778021919 | 10° C | 62% | 1007.3 hPa | 0 mm | - | 21 W/m² | - |
| 1778021616 | 10° C | 62% | 1007.5 hPa | 0 mm | - | 19 W/m² | - |
| 1778021311 | 10° C | 63% | 1007.6 hPa | 0 mm | - | 23 W/m² | - |
| 1778021010 | 10° C | 66% | 1007.7 hPa | 0 mm | - | 24 W/m² | - |
* Rain latest hour (hover to see other rain measurements)
** Current wind speed in m/s (hover to see current wind gust speed)